MOLNIYA 2-10

Last updated on Nov. 12, 2019, 4:19 a.m. UTC

1 07376U 74056A   19314.79240451  .00001161  00000-0  00000+0 0  9993
2 07376  63.5075 191.2720 6818331 293.6933  11.3164  2.01173527331302
UTC
Height (km)
Latitude
Longitude
Inclination
Orbital Period
UTC large
Height (km)
Speed (km/s)
/
Latitude / Longitude
Inclination (degrees)
Orbital Period (minutes)
Azimuth
Elevation
Range (km)
Doppler Factor
iOS Compass Heading
iOS Angle

Next 30 passes for location: Hong Kong

Rise time Rise Azimuth (degrees) Set time Set Azimuth (degrees) Duration Max altitude (degrees)

No matching passes for this satellites